Regional Weather Roundup
Issued by NWS Grand Forks, ND

Home | Current Version | Previous Version | Text Only | Print | Product List | Glossary Off
Versions: 1 2 3 4 5 6 7 8 9 10 11 12 13 14 15 16 17 18 19 20 21 22 23 24 25 26 27 28 29 30 31 32 33 34 35 36 37 38 39 40 41 42 43 44 45 46 47 48 49 50

000
ASUS43 KFGF 170210
RWRFGF
PRAIRIE TO PINES  WEATHER ROUNDUP
NATIONAL WEATHER SERVICE EASTERN NORTH DAKOTA/GRAND FORKS ND
900 PM CDT WED AUG 16 2017

 **SATELLITE DATA USED TO AUGMENT SKY COVER AT AUTOMATED STATIONS**
 *****  WEATHER ACROSS EASTERN NORTH DAKOTA  *****

CITY           SKY/WX    TMP DP  RH WIND       PRES   REMARKS
GRAND FORKS    MOCLDY    65  64  97 N7        29.82S
GRAND FRKS AFB FAIR      63  63  98 N8        29.84S
DEVILS LAKE    FAIR      64  60  87 N6        29.87S
FARGO          CLOUDY    66  65  96 N13       29.79F
WAHPETON ARPT  CLOUDY    64  63  94 N12       29.77F
$$

 ***** WEATHER ACROSS CENTRAL AND WESTERN NORTH DAKOTA  *****

CITY           SKY/WX    TMP DP  RH WIND       PRES   REMARKS
BISMARCK       FAIR      70  56  61 N6        29.89F
MINOT          FAIR      69  53  56 E6        29.88F
JAMESTOWN      FAIR      63  60  90 N6        29.84F
MINOT AFB      FAIR      65  53  65 SE6       29.87S
GARRISON         N/A     66  55  67 E7        29.89F
WILLISTON      MOCLDY    76  55  48 SE9       29.86S
DICKINSON      FAIR      68  55  63 E8        29.91S
HETTINGER      FAIR      67  53  61 SE5       29.95S
$$

 *****  OTHER AIRPORT OBSERVATIONS IN OUR AREA  *****

CITY           SKY/WX    TMP DP  RH WIND       PRES   REMARKS
WALHALLA       FAIR      66  66 100 CALM      29.85S
GRAFTON AIRPOR FAIR      64  64 100 NE5       29.86S
VALLEY CITY AR   N/A     64  64 100 N6        29.85S
CANDO          FAIR      64  64 100 N6        29.89S
CAVALIER APRT  FAIR      66  63  88 CALM      29.84S
GWINNER        CLOUDY    64  64 100 N10       29.81S
SHEYENNE NWR     N/A     65  65 100 N7        29.95S
ROLLA          FAIR      59  59 100 NW7       29.90S
 ***** THE ABOVE OBSERVATIONS ARE NON NWS ARE NOT QUALITY
       CONTROLLED AND MAY MIS-REPORT RAIN FOR SNOW...
$$

  *****  WEATHER ACROSS NORTHERN MINNESOTA  *****

CITY           SKY/WX    TMP DP  RH WIND       PRES   REMARKS
FLAG ISLAND    CLOUDY    64  59  82 E3        29.86S
WARROAD        CLOUDY    63  59  88 E9        29.86S
ROSEAU         CLOUDY    63  57  82 NE5       29.85S HAZE
HALLOCK        FAIR      64  61  88 N3        29.85R
THF RVR FALLS  CLOUDY    64  63  94 NE7       29.83F
BAUDETTE       CLOUDY    61  61 100 E10       29.84F
WASKISH        DRIZZLE   63  61  94 E7        29.83F
CROOKSTON      CLOUDY    64  64 100 NE5       29.82S
STEPHEN NDAWN    N/A    N/A N/A N/A N3          N/A
GREENBUSH NDAW   N/A     63  63 100 NE5         N/A
$$
  *****  WEATHER ACROSS CENTRAL AND WEST MINNESOTA  *****

CITY           SKY/WX    TMP DP  RH WIND       PRES   REMARKS
FOSSTON          N/A     63  63 100 N3        29.82S FOG
BEMIDJI        RAIN      64  63  98 E5        29.81F
PARK RAPIDS    LGT RAIN  66  63  90 E7        29.79F
ELBOW LAKE     LGT RAIN  65  65 100 NE5       29.75F
WADENA         RAIN      64  64 100 NE5       29.77F
DETROIT LAKES  DRIZZLE   64  64 100 N3        29.80F
MOORHEAD       CLOUDY    64  63  94 N9        29.79F
FERGUS FALLS   RAIN      66  66 100 CALM      29.76F
MORRIS MN      LGT RAIN  66  66 100 N10       29.72S
STAPLES        LGT RAIN  64  63  94 NE3       29.78R
$$
  *****  WEATHER ELSEWHERE ACROSS MINNESOTA  *****

CITY           SKY/WX    TMP DP  RH WIND       PRES   REMARKS
DULUTH         CLOUDY    60  58  92 E15G24    29.84F
INTRNTL FALLS  LGT RAIN  61  59  93 E8        29.87S FOG
ELY            LGT RAIN  57  55  94 E5        29.89F
CLOQUET        CLOUDY    61  57  88 E12       29.84S
WHEATON        RAIN      66  64  94 N6        29.76F
BRAINERD       LGT RAIN  64  62  93 NE12      29.78R
HIBBING        LGT RAIN  59  59 100 E5        29.85F FOG
ALEXANDRIA     RAIN      65  65 100 NE9       29.77R
SAINT CLOUD    LGT RAIN  68  68 100 NE10G21   29.68F FOG
MINNEAPOLIS    HVY RAIN  72  68  87 E24       29.63F VSB 1
$$

  *****  WEATHER ACROSS SOUTH DAKOTA  *****

CITY           SKY/WX    TMP DP  RH WIND       PRES   REMARKS
SIOUX FALLS    LGT RAIN  67  67 100 NW7       29.73R
BROOKINGS      RAIN      64  63  96 NW10      29.72R
WATERTOWN      LGT RAIN  65  65 100 N12       29.75S
HURON          CLOUDY    67  66  97 NW13      29.78S
SISSETON         N/A     67  66  97 N15       29.75F
ABERDEEN       CLOUDY    66  66 100 N9        29.82S
MITCHELL       LGT RAIN  67  66  97 W12       29.79R
PIERRE         FAIR      65  56  72 NW9       29.88S
MOBRIDGE       FAIR      67  61  81 N3        29.86S
RAPID CITY     FAIR      68  50  52 E7        29.98S
$$

  *****  SOME WEATHER IN NEARBY STATES *****

CITY           SKY/WX    TMP DP  RH WIND       PRES   REMARKS
GLASGOW MT     MOCLDY    79  44  28 CALM      29.80R
GREAT FALLS MT FAIR      78  26  14 CALM      29.91R
CHEYENNE WY    FAIR      65  47  52 SW12      30.18R
SCOTTSBLUFF NE FAIR      69  53  56 SE7       30.06R
OMAHA NE       FAIR      74  65  73 W6        29.79R
DES MOINES IA  FAIR      77  66  68 SW13      29.75R
DAVENPORT IA   FAIR      77  72  84 S10       29.81S
CHICAGO IL     LGT RAIN  78  73  84 SE9       29.88R
EAU CLAIRE WI  LGT RAIN  71  66  84 E16G23    29.74S
LA CROSSE WI   CLOUDY    76  72  87 SE12      29.73S
$$

  *****  SOME NATIONAL WEATHER *****

CITY           SKY/WX    TMP DP  RH WIND       PRES   REMARKS
LA GUARDIA NY  FAIR      81  64  56 E6        29.99R
RALEIGH NC     MOCLDY    80  73  79 CALM      30.05R
ATLANTA GA     FAIR      83  74  74 W5        30.07R
NEW ORLEANS LA FAIR      80  76  87 E6        30.05S
OKLAHOMA CITY  FAIR      81  75  82 S10       29.85R
ALBUQUERQUE NM FAIR      85  35  16 SW10      30.09R
SALT LAKE CITY MOCLDY    84  37  18 N6        30.01S
LOS ANGELES CA FAIR      69  62  78 W13       29.93S
BOISE ID       FAIR      85  34  16 N9        29.94S
SEATTLE WA     FAIR      76  52  43 SW8       30.07S
$$

*** WEATHER ACROSS MANITOBA...SASKATCHEWAN AND ONTARIO ***
                ***ONTARIO***

CITY           SKY/WX    TMP DP  RH WIND       PRES   REMARKS
GERALDTON      MOCLDY    61  52  72 CALM      29.99S
THUNDER BAY    CLOUDY    61  57  88 E10G17    29.94F
SIOUX LOOKOUT  CLOUDY    61  61 100 SE3       29.90F
TORONTO        CLEAR     68  59  73 SE5       30.06R
BIG TROUT LK   CLOUDY    64  59  82 S2        29.89F
PICKLE LAKE    CLOUDY    64  59  82 S5        29.94F
DRYDEN         CLOUDY    61  54  77 SE3       29.91F
KENORA         MOCLDY    63  59  88 SE6       29.90S
$$
                *** MANITOBA***

CITY           SKY/WX    TMP DP  RH WIND       PRES   REMARKS
BRANDON        PTCLDY    64  54  68 NW6       29.86S
DAUPHIN        CLEAR     63  55  77 SW6       29.83S
ISLAND LAKE    MOCLDY    64  61  88 S6        29.84S
PILOT MOUND      N/A     64  59  82 N3          N/A
THE PAS        MOCLDY    68  55  64 W13       29.78R
THOMPSON       PTCLDY    66  59  77 VRB2      29.74S
WINNIPEG       MOCLDY    66  59  77 SE8       29.85S
LYNN LAKE      MOCLDY    64  54  68 MISG      29.67S HAZE
CHURCHILL      CLOUDY    70  59  68 SW12G17   29.76R
GILLAM         MOCLDY    64  57  77 SE6       29.80S
$$
                ***SASKATCHEWAN***

CITY           SKY/WX    TMP DP  RH WIND       PRES   REMARKS
ESTEVAN        PTCLDY    70  50  49 SE8       29.87R
KINDERSLEY     PTCLDY    68  50  52 SE9       29.83S
LLOYDMINSTER   MOCLDY    66  55  68 W2        29.82S
PRINCE ALBERT  PTCLDY    64  50  59 W7        29.84S
REGINA         MOCLDY    72  41  33 NE9       29.86R
YORKTON        CLEAR     66  50  55 NW3       29.86S
N. BATTLEFORD  CLEAR     63  52  67 E9        29.84S
LA RONGE       PTCLDY    66  43  42 W5        29.76S
SASKATOON      PTCLDY    64  48  55 E7        29.86F
SWIFT CURRENT  CLEAR     70  43  37 E12G17    29.84R
$$
NOTE: THESE ARE AUTOMATED STATIONS WITH LIMITED QUALITY CONTROL
      "FAIR" INDICATES FEW OR NO CLOUDS BELOW 12,000 FEET WITH NO
      SIGNIFICANT WEATHER AND/OR OBSTRUCTIONS TO VISIBILITY.
      SKY/WX - SKY CONDITION AND SIGNIFICANT WEATHER.
      TMP - AIR TEMPERATURE.    DP   - DEWPOINT TEMPERATURE.
      RH  - RELATIVE HUMIDITY.  PRES - PRESSURE.
      HX  - HEAT INDEX.         WCI  - WIND CHILL INDEX.
$




USA.gov is the U.S. government's official web portal to all federal, state and local government web resources and services.